| time (UTC) | temp F | wind direction | speed MPH | gust MPH | rain 1hr in | rain 24hr in | rain mn in | humidity % | barometer mb |
| 20260906103038 | 69 | 82 | 2.0 | 6.0 | 0.00 | 0.00 | 0.00 | 92 | 1014.0 |
| 20260906101536 | 69 | 83 | 2.0 | 10.0 | 0.00 | 0.00 | 0.00 | 92 | 1013.9 |
| 20260906100034 | 70 | 61 | 5.0 | 9.0 | 0.00 | 0.00 | 0.00 | 92 | 1013.9 |
| 20260906094535 | 70 | 115 | 4.0 | 9.0 | 0.00 | 0.00 | 0.00 | 92 | 1013.7 |
| 20260906093035 | 71 | 43 | 1.0 | 6.0 | 0.00 | 0.00 | 0.00 | 92 | 1013.7 |
| 20260906091534 | 71 | 72 | 1.0 | 7.0 | 0.00 | 0.00 | 0.00 | 92 | 1013.9 |
| 20260906090031 | 71 | 82 | 0.0 | 6.0 | 0.00 | 0.00 | 0.00 | 92 | 1013.9 |
| 20260906084532 | 71 | 40 | 0.0 | 8.0 | 0.00 | 0.00 | 0.00 | 92 | 1013.8 |
| 20260906083029 | 71 | 348 | 0.0 | 4.0 | 0.00 | 0.00 | 0.00 | 92 | 1013.7 |
| 20260906081540 | 71 | 16 | 0.0 | 6.0 | 0.00 | 0.00 | 0.00 | 91 | 1013.6 |
| 20260906080031 | 71 | 19 | 0.0 | 7.0 | 0.00 | 0.00 | 0.00 | 91 | 1013.3 |
| 20260906074527 | 71 | 42 | 0.0 | 6.0 | 0.00 | 0.00 | 0.00 | 91 | 1013.3 |
| 20260906073027 | 71 | 53 | 0.0 | 4.0 | 0.00 | 0.00 | 0.00 | 91 | 1013.4 |
| 20260906071525 | 71 | 40 | 2.0 | 5.0 | 0.00 | 0.00 | 0.00 | 91 | 1013.5 |
| 20260906070024 | 71 | 60 | 3.0 | 7.0 | 0.00 | 0.00 | 0.00 | 91 | 1013.6 |
| 20260906064524 | 71 | 13 | 0.0 | 6.0 | 0.00 | 0.00 | 0.00 | 91 | 1013.7 |
| 20260906063023 | 71 | 57 | 0.0 | 3.0 | 0.00 | 0.00 | 0.00 | 91 | 1014.0 |
| 20260906061521 | 71 | 53 | 0.0 | 2.0 | 0.00 | 0.00 | 0.00 | 91 | 1014.0 |
| 20260906054517 | 71 | 24 | 0.0 | 3.0 | 0.00 | 0.00 | 0.00 | 90 | 1013.5 |
| 20260906053022 | 70 | 28 | 0.0 | 6.0 | 0.00 | 0.00 | 0.00 | 90 | 1013.5 |
| 20260906051516 | 70 | 53 | 1.0 | 4.0 | 0.00 | 0.00 | 0.00 | 90 | 1013.4 |
| 20260906050029 | 71 | 17 | 0.0 | 5.0 | 0.00 | 0.00 | 0.00 | 90 | 1013.4 |
| 20260906044522 | 71 | 40 | 0.0 | 4.0 | 0.00 | 0.00 | 0.00 | 89 | 1013.2 |
| 20260906043010 | 71 | 42 | 0.0 | 4.0 | 0.00 | 0.00 | 0.00 | 89 | 1013.2 |
| 20260906041609 | 71 | 51 | 0.0 | 6.0 | 0.00 | 0.00 | 0.00 | 88 | 1013.2 |
| 20260906040007 | 72 | 34 | 3.0 | 9.0 | 0.00 | 0.00 | 0.00 | 88 | 1013.1 |
| 20260906034505 | 72 | 42 | 0.0 | 6.0 | 0.00 | 0.00 | 0.00 | 88 | 1013.1 |
| 20260906033007 | 72 | 32 | 1.0 | 8.0 | 0.00 | 0.00 | 0.00 | 87 | 1013.0 |
| 20260906031604 | 73 | 49 | 1.0 | 9.0 | 0.00 | 0.00 | 0.00 | 86 | 1012.8 |
| 20260906030058 | 73 | 68 | 4.0 | 11.0 | 0.00 | 0.00 | 0.00 | 86 | 1012.6 |
| 20260906024555 | 74 | 34 | 2.0 | 9.0 | 0.00 | 0.00 | 0.00 | 85 | 1012.6 |
| 20260906023053 | 75 | 26 | 3.0 | 10.0 | 0.00 | 0.00 | 0.00 | 84 | 1012.6 |
| 20260906021550 | 75 | 42 | 4.0 | 12.0 | 0.00 | 0.00 | 0.00 | 84 | 1012.5 |
| 20260906020051 | 76 | 24 | 1.0 | 10.0 | 0.00 | 0.00 | 0.00 | 83 | 1012.3 |
| 20260906014544 | 77 | 70 | 4.0 | 11.0 | 0.00 | 0.00 | 0.00 | 82 | 1012.1 |
| 20260906013042 | 78 | 13 | 4.0 | 10.0 | 0.00 | 0.00 | 0.00 | 80 | 1012.1 |
| 20260906011541 | 79 | 78 | 5.0 | 10.0 | 0.00 | 0.00 | 0.00 | 79 | 1011.9 |
| 20260906010037 | 80 | 360 | 4.0 | 10.0 | 0.00 | 0.00 | 0.00 | 78 | 1011.4 |
| 20260906004537 | 81 | 121 | 5.0 | 13.0 | 0.00 | 0.00 | 0.00 | 77 | 1011.3 |
| 20260906003035 | 82 | 55 | 1.0 | 10.0 | 0.00 | 0.00 | 0.00 | 76 | 1011.1 |
| 20260906001535 | 83 | 22 | 3.0 | 7.0 | 0.00 | 0.00 | 0.00 | 75 | 1011.1 |
| 20260906000035 | 84 | 94 | 4.0 | 12.0 | 0.00 | 0.00 | 0.00 | 74 | 1010.8 |
| 20260905234534 | 85 | 39 | 4.0 | 14.0 | 0.00 | 0.00 | 0.00 | 73 | 1010.8 |
| 20260905233040 | 88 | 58 | 4.0 | 14.0 | 0.00 | 0.00 | 0.00 | 70 | 1010.8 |
| 20260905231533 | 90 | 9 | 0.0 | 8.0 | 0.00 | 0.00 | 0.00 | 66 | 1010.5 |
| 20260905230038 | 90 | 360 | 0.0 | 11.0 | 0.00 | 0.00 | 0.00 | 65 | 1010.3 |
| 20260905224634 | 91 | 319 | 5.0 | 10.0 | 0.00 | 0.00 | 0.00 | 64 | 1010.2 |
| 20260905223031 | 92 | 338 | 0.0 | 9.0 | 0.00 | 0.00 | 0.00 | 63 | 1010.2 |
| 20260905221531 | 93 | 348 | 5.0 | 10.0 | 0.00 | 0.00 | 0.00 | 62 | 1010.1 |
| 20260905220035 | 94 | 340 | 5.0 | 11.0 | 0.00 | 0.00 | 0.00 | 61 | 1010.1 |
| 20260905214529 | 94 | 9 | 3.0 | 9.0 | 0.00 | 0.00 | 0.00 | 61 | 1009.9 |
| 20260905213029 | 93 | 336 | 0.0 | 11.0 | 0.00 | 0.00 | 0.00 | 62 | 1010.1 |
| 20260905211528 | 95 | 15 | 5.0 | 11.0 | 0.00 | 0.00 | 0.00 | 60 | 1010.1 |
| 20260905210027 | 95 | 333 | 0.0 | 10.0 | 0.00 | 0.00 | 0.00 | 60 | 1010.0 |
| 20260905204527 | 95 | 338 | 5.0 | 10.0 | 0.00 | 0.00 | 0.00 | 60 | 1010.2 |
| 20260905203025 | 94 | 355 | 0.0 | 1.0 | 0.00 | 0.00 | 0.00 | 63 | 1010.3 |
| 20260905201526 | 96 | 17 | 6.0 | 12.0 | 0.00 | 0.00 | 0.00 | 58 | 1010.2 |
| 20260905200026 | 97 | 312 | 4.0 | 10.0 | 0.00 | 0.00 | 0.00 | 56 | 1010.3 |
| 20260905194523 | 98 | 284 | 3.0 | 9.0 | 0.00 | 0.00 | 0.00 | 55 | 1010.3 |
| 20260905193023 | 96 | 341 | 0.0 | 10.0 | 0.00 | 0.00 | 0.00 | 58 | 1010.6 |
| 20260905191520 | 99 | 342 | 5.0 | 11.0 | 0.00 | 0.00 | 0.00 | 52 | 1010.7 |
| 20260905190019 | 98 | 350 | 0.0 | 9.0 | 0.00 | 0.00 | 0.00 | 54 | 1010.8 |
| 20260905184518 | 97 | 333 | 1.0 | 8.0 | 0.00 | 0.00 | 0.00 | 55 | 1010.9 |
| 20260905183017 | 98 | 28 | 4.0 | 9.0 | 0.00 | 0.00 | 0.00 | 53 | 1011.0 |
| 20260905181516 | 98 | 319 | 0.0 | 10.0 | 0.00 | 0.00 | 0.00 | 54 | 1011.1 |
| 20260905180017 | 98 | 303 | 5.0 | 10.0 | 0.00 | 0.00 | 0.00 | 54 | 1011.2 |
| 20260905174513 | 97 | 279 | 4.0 | 10.0 | 0.00 | 0.00 | 0.00 | 55 | 1011.3 |
| 20260905173021 | 96 | 287 | 6.0 | 11.0 | 0.00 | 0.00 | 0.00 | 55 | 1011.2 |
| 20260905171519 | 96 | 336 | 0.0 | 6.0 | 0.00 | 0.00 | 0.00 | 55 | 1011.4 |
| 20260905170012 | 96 | 304 | 4.0 | 9.0 | 0.00 | 0.00 | 0.00 | 56 | 1011.6 |
| 20260905164511 | 96 | 329 | 5.0 | 10.0 | 0.00 | 0.00 | 0.00 | 54 | 1011.7 |
| 20260905161507 | 96 | 305 | 1.0 | 7.0 | 0.00 | 0.00 | 0.00 | 55 | 1011.5 |
| 20260905160011 | 95 | 285 | 2.0 | 8.0 | 0.00 | 0.00 | 0.00 | 55 | 1011.7 |
| 20260905154505 | 95 | 296 | 1.0 | 8.0 | 0.00 | 0.00 | 0.00 | 55 | 1011.7 |
| 20260905153007 | 95 | 304 | 1.0 | 9.0 | 0.00 | 0.00 | 0.00 | 56 | 1011.6 |
| 20260905151608 | 94 | 306 | 1.0 | 5.0 | 0.00 | 0.00 | 0.00 | 59 | 1011.4 |
| 20260905150059 | 93 | 311 | 2.0 | 6.0 | 0.00 | 0.00 | 0.00 | 59 | 1011.3 |
| 20260905144557 | 91 | 299 | 2.0 | 6.0 | 0.00 | 0.00 | 0.00 | 61 | 1011.4 |
| 20260905143051 | 89 | 302 | 3.0 | 5.0 | 0.00 | 0.00 | 0.00 | 65 | 1011.4 |
| 20260905141549 | 88 | 299 | 0.0 | 5.0 | 0.00 | 0.00 | 0.00 | 67 | 1011.7 |
| 20260905140046 | 86 | 300 | 2.0 | 5.0 | 0.00 | 0.00 | 0.00 | 70 | 1011.7 |
| 20260905134543 | 86 | 268 | 0.0 | 5.0 | 0.00 | 0.00 | 0.00 | 72 | 1011.5 |
| 20260905133042 | 85 | 266 | 0.0 | 4.0 | 0.00 | 0.00 | 0.00 | 73 | 1011.5 |
| 20260905131538 | 84 | 265 | 1.0 | 4.0 | 0.00 | 0.00 | 0.00 | 74 | 1011.5 |
| 20260905130036 | 83 | 316 | 2.0 | 3.0 | 0.00 | 0.00 | 0.00 | 77 | 1011.5 |
| 20260905124539 | 82 | 323 | 2.0 | 3.0 | 0.00 | 0.00 | 0.00 | 78 | 1011.5 |
| 20260905123031 | 81 | 333 | 0.0 | 0.0 | 0.00 | 0.00 | 0.00 | 80 | 1011.4 |
| 20260905121530 | 80 | 333 | 0.0 | 0.0 | 0.00 | 0.00 | 0.00 | 81 | 1011.4 |
| 20260905120030 | 79 | 333 | 0.0 | 0.0 | 0.00 | 0.00 | 0.00 | 83 | 1011.3 |
| 20260905114530 | 80 | 333 | 0.0 | 0.0 | 0.00 | 0.00 | 0.00 | 83 | 1011.1 |
| 20260905113029 | 80 | 333 | 0.0 | 0.0 | 0.00 | 0.00 | 0.00 | 82 | 1011.1 |
| 20260905111530 | 80 | 333 | 0.0 | 0.0 | 0.00 | 0.00 | 0.00 | 81 | 1011.0 |
| 20260905110028 | 80 | 333 | 0.0 | 0.0 | 0.00 | 0.00 | 0.00 | 81 | 1011.0 |
| 20260905104528 | 80 | 333 | 0.0 | 0.0 | 0.00 | 0.00 | 0.00 | 82 | 1011.2 |